Regional Weather Roundup
Issued by NWS

Home | Current Version | Previous Version | Graphics & Text | Print | Product List | Glossary On
Versions: 1 2 3 4 5 6 7 8 9 10 11 12 13 14 15 16 17 18 19 20 21 22 23 24 25 26 27 28 29 30 31 32 33 34 35 36 37 38 39 40 41 42 43 44 45 46 47 48 49 50
000
ASUS45 KABQ 191301
RWRNM
NEW MEXICO REGIONAL WEATHER ROUNDUP
NATIONAL WEATHER SERVICE ALBUQUERQUE NM
700 AM MDT TUE SEP 19 2017

NOTE: "FAIR" MEANS FEW OR NO CLOUDS BELOW 12,000 FEET AGL WITH NO
       SIGNIFICANT WEATHER OR OBSTRUCTIONS TO VISION.

      THIS PRODUCT IS RELEASED AS TWO VERSIONS.  ONE VERSION NEAR
      THE TOP OF THE HOUR CONTAINING PRELIMINARY DATA FROM ALBUQUERQUE
      AND OTHER STATIONS.  A FINAL VERSION WITH ADDITIONAL DATA IS
      ISSUED ABOUT 10 MINUTES AFTER THE HOUR.

NMZ501-503-504-510>518-191400-
NORTHWEST PLATEAU/NORTHCENTRAL MOUNTAINS

CITY           SKY/WX    TMP DP  RH WIND       PRES   REMARKS
FARMINGTON     FAIR      41  27  57 N5        30.04R
LOS ALAMOS     FAIR      55  17  21 SE5       30.14R
SANTA FE       FAIR      48  24  39 N3        30.10S
TAOS           FAIR      49  19  30 CALM      30.16R
ANGEL FIRE     FAIR      48  18  30 SW5G17    30.18R

$$
NMZ402-403-502-505>509-191400-
WESTCENTRAL MOUNTAINS/SOUTHWEST MOUNTAINS

CITY           SKY/WX    TMP DP  RH WIND       PRES   REMARKS
GALLUP         FAIR      41  23  48 SW3       30.12R
GRANTS         FAIR      48  24  39 SE6       30.14S
SILVER CITY    FAIR      52  35  51 N9        30.12S

$$
NMZ407-409-411-412-191400-
SOUTHERN DESERTS

CITY           SKY/WX    TMP DP  RH WIND       PRES   REMARKS
DEMING         FAIR      56  43  61 CALM      30.07S
LAS CRUCES     FAIR      62  51  67 CALM      30.07S
HOLLOMAN AFB   FAIR      68  51  54 SE10      30.04S
ALAMOGORDO     FAIR      66  50  55 S7        30.05R
T OR C         FAIR      60  32  34 N5        30.05F

$$
NMZ519>523-191400-
CENTRAL VALLEYS/CENTRAL HIGHLANDS

CITY           SKY/WX    TMP DP  RH WIND       PRES   REMARKS
ALBUQUERQUE    FAIR      59  26  28 W5        30.08R
DOUBLE EAGLE   CLEAR     48  25  40 W7        30.10R
CLINES CORNERS FAIR      49  23  36 W15       30.13F
BELEN          FAIR      54  26  33 CALM      30.06S
SOCORRO        FAIR      55  31  40 S6        30.05S

$$
NMZ524>526-539-540-191400-
SOUTHCENTRAL MOUNTAINS

CITY           SKY/WX    TMP DP  RH WIND       PRES   REMARKS
RUIDOSO        FAIR      57  45  62 SW8       30.18S

$$
NMZ527>531-191400-
NORTHEAST HIGHLANDS/NORTHEAST PLAINS

CITY           SKY/WX    TMP DP  RH WIND       PRES   REMARKS
LAS VEGAS      FAIR      54  18  24 SW17      30.06F
RATON          FAIR      42  34  73 N10       29.99S
CLAYTON        FAIR      56  34  43 W15       29.90S

$$
NMZ532>537-191400-
EASTCENTRAL PLAINS

CITY           SKY/WX    TMP DP  RH WIND       PRES   REMARKS
SANTA ROSA     FAIR      60  29  30 W10G16    29.99R
TUCUMCARI      FAIR      61  35  37 W12       29.91R
CANNON AFB     FAIR      61  54  77 W13       29.99R
CLOVIS AIRPORT FAIR      57  52  83 W13       29.98R

$$
NMZ028-029-538-191400-
SOUTHEAST PLAINS

CITY           SKY/WX    TMP DP  RH WIND       PRES   REMARKS
ROSWELL        FAIR      62  47  57 CALM      29.97R
ARTESIA        FAIR      68  46  45 SW3       29.96S
CARLSBAD       FAIR      65  55  70 CALM      29.96R


$$




USA.gov is the U.S. government's official web portal to all federal, state and local government web resources and services.